Weather History for Mount Carmel, IL

Change the Weather History Date:

Sunday, February 24, 2013

  Actual Average (KLWV) Record (KLWV)
Temperature  
Mean Temperature 35 °F 38 °F  
Max Temperature 44 °F 47 °F 63 °F (2001)
Min Temperature 26 °F 29 °F 10 °F (1993)
Degree Days  
Heating Degree Days 30 27  
Month to date heating degree days 722  
Since 1 July heating degree days 3573  
Cooling Degree Days 0 0  
Month to date cooling degree days 0  
Year to date cooling degree days 0  
Moisture  
Dew Point 28 °F    
Average Humidity 79    
Maximum Humidity 100    
Minimum Humidity 53    
Precipitation  
Precipitation 0.00 in 0.06 in 1.00 in (2011)
Month to date precipitation 1.77  
Year to date precipitation 4.15  
Sea Level Pressure  
Sea Level Pressure 30.11 in    
Wind  
Wind Speed 1 mph (NE)    
Max Wind Speed 6 mph    
Max Gust Speed -    
Visibility 9 miles    
Events      
T = Trace of Precipitation, MM = Missing Value Source: NWS Daily Summary

Daily Weather History Graph

Daily Weather History Graph

Search for Another Location

Airport:

Trip Planner

Search our weather history database for the weather conditions in past years. The results will help you decide how hot, cold, wet, or windy it might be!

Date:

Astronomy

Feb. 24, 2013 Rise Set
Actual Time 6:29 AM CST 5:38 PM CST
Civil Twilight 6:02 AM CST 6:05 PM CST
Nautical Twilight 5:32 AM CST 6:36 PM CST
Astronomical Twilight 5:01 AM CST 7:07 PM CST
Moon 4:49 PM CST (2/24) 5:26 AM CST (2/24)
Length of Visible Light 12h 02m
Length of Day
11h 09m
Waxing Gibbous, 99% of the Moon is Illuminated
Feb 24
Waxing Gibbous
Feb 25
Full
Mar 4
Last Quarter
Mar 11
New
Mar 19
First Quarter

Hourly Weather History & Observations

Time (CST) Temp. Windchill Dew Point Humidity Pressure Visibility Wind Dir Wind Speed Gust Speed Precip Events Conditions
12:15 AM 30.2 °F 26.7 °F 26.6 °F 86% 30.03 in 10.0 mi NNW 3.5 mph - N/A   Clear
12:35 AM 30.2 °F - 26.6 °F 86% 30.04 in 10.0 mi Calm Calm - N/A   Clear
12:55 AM 30.2 °F 26.7 °F 24.8 °F 80% 30.03 in 10.0 mi NNE 3.5 mph - N/A   Clear
1:15 AM 28.4 °F - 26.6 °F 93% 30.04 in 10.0 mi Calm Calm - N/A   Clear
1:35 AM 28.4 °F - 26.6 °F 93% 30.06 in 7.0 mi Calm Calm - N/A   Clear
1:55 AM 28.4 °F - 26.6 °F 93% 30.05 in 7.0 mi Calm Calm - N/A   Clear
2:15 AM 28.4 °F - 26.6 °F 93% 30.05 in 7.0 mi Calm Calm - N/A   Clear
2:35 AM 28.4 °F - 26.6 °F 93% 30.05 in 7.0 mi Calm Calm - N/A   Clear
2:55 AM 28.4 °F - 26.6 °F 93% 30.05 in 7.0 mi Calm Calm - N/A   Clear
3:15 AM 26.6 °F - 24.8 °F 93% 30.06 in 7.0 mi Calm Calm - N/A   Clear
3:35 AM 28.4 °F - 26.6 °F 93% 30.07 in 5.0 mi Calm Calm - N/A   Clear
3:55 AM 26.6 °F - 26.6 °F 100% 30.06 in 5.0 mi Calm Calm - N/A   Clear
4:15 AM 26.6 °F - 24.8 °F 93% 30.07 in 5.0 mi Calm Calm - N/A   Clear
4:35 AM 26.6 °F - 26.6 °F 100% 30.07 in 7.0 mi Calm Calm - N/A   Clear
4:55 AM 26.6 °F - 24.8 °F 93% 30.08 in 5.0 mi Calm Calm - N/A   Clear
5:15 AM 26.6 °F - 23.0 °F 86% 30.09 in 5.0 mi Calm Calm - N/A   Clear
5:35 AM 26.6 °F - 24.8 °F 93% 30.09 in 5.0 mi Calm Calm - N/A   Clear
5:55 AM 26.6 °F - 24.8 °F 93% 30.09 in 5.0 mi Calm Calm - N/A   Clear
6:15 AM 26.6 °F - 24.8 °F 93% 30.10 in 5.0 mi Calm Calm - N/A   Clear
6:35 AM 26.6 °F - 24.8 °F 93% 30.11 in 3.0 mi Calm Calm - N/A   Clear
6:55 AM 26.6 °F - 26.6 °F 100% 30.12 in 3.0 mi Calm Calm - N/A   Clear
7:15 AM 26.6 °F - 26.6 °F 100% 30.12 in 3.0 mi Calm Calm - N/A   Clear
7:35 AM 28.4 °F - 26.6 °F 93% 30.13 in 4.0 mi Calm Calm - N/A   Clear
7:55 AM 30.2 °F - 28.4 °F 93% 30.14 in 5.0 mi Calm Calm - N/A   Clear
8:15 AM 30.2 °F - 28.4 °F 93% 30.14 in 7.0 mi Calm Calm - N/A   Clear
8:35 AM 32.0 °F - 28.4 °F 87% 30.15 in 10.0 mi Calm Calm - N/A   Clear
8:55 AM 32.0 °F - 26.6 °F 80% 30.16 in 10.0 mi Calm Calm - N/A   Clear
9:15 AM 32.0 °F - 26.6 °F 80% 30.17 in 10.0 mi Calm Calm - N/A   Clear
9:35 AM 33.8 °F - 26.6 °F 75% 30.17 in 10.0 mi Calm Calm - N/A   Clear
9:55 AM 33.8 °F - 24.8 °F 70% 30.17 in 10.0 mi Calm Calm - N/A   Clear
10:15 AM 35.6 °F - 26.6 °F 70% 30.17 in 10.0 mi Calm Calm - N/A   Clear
10:35 AM 35.6 °F - 26.6 °F 70% 30.16 in 10.0 mi Calm Calm - N/A   Clear
10:55 AM 37.4 °F - 26.6 °F 65% 30.16 in 10.0 mi Calm Calm - N/A   Clear
11:15 AM 37.4 °F - 26.6 °F 65% 30.15 in 10.0 mi Calm Calm - N/A   Clear
11:35 AM 39.2 °F - 26.6 °F 61% 30.15 in 10.0 mi Calm Calm - N/A   Clear
11:55 AM 39.2 °F - 26.6 °F 61% 30.14 in 10.0 mi Calm Calm - N/A   Clear
12:15 PM 39.2 °F - 26.6 °F 61% 30.14 in 10.0 mi Calm Calm - N/A   Clear
12:35 PM 41.0 °F - 28.4 °F 61% 30.14 in 10.0 mi Calm Calm - N/A   Clear
12:55 PM 41.0 °F - 28.4 °F 61% 30.14 in 10.0 mi Calm Calm - N/A   Clear
1:15 PM 41.0 °F - 30.2 °F 65% 30.13 in 10.0 mi Calm Calm - N/A   Clear
1:35 PM 42.8 °F - 30.2 °F 61% 30.13 in 10.0 mi Calm Calm - N/A   Clear
1:55 PM 44.6 °F - 30.2 °F 57% 30.13 in 10.0 mi Calm Calm - N/A   Clear
2:15 PM 42.8 °F - 30.2 °F 61% 30.12 in 10.0 mi Calm Calm - N/A   Clear
2:35 PM 44.6 °F - 32.0 °F 61% 30.12 in 10.0 mi Calm Calm - N/A   Clear
2:55 PM 44.6 °F - 30.2 °F 57% 30.12 in 10.0 mi Calm Calm - N/A   Clear
3:15 PM 44.6 °F - 30.2 °F 57% 30.11 in 10.0 mi Calm Calm - N/A   Clear
3:35 PM 44.6 °F - 30.2 °F 57% 30.11 in 10.0 mi Calm Calm - N/A   Clear
3:55 PM 44.6 °F - 30.2 °F 57% 30.11 in 10.0 mi Calm Calm - N/A   Clear
4:15 PM 44.6 °F - 30.2 °F 57% 30.10 in 10.0 mi Calm Calm - N/A   Clear
4:35 PM 44.6 °F - 28.4 °F 53% 30.10 in 10.0 mi Calm Calm - N/A   Clear
4:55 PM 44.6 °F - 28.4 °F 53% 30.10 in 10.0 mi Calm Calm - N/A   Clear
5:15 PM 44.6 °F - 30.2 °F 57% 30.10 in 10.0 mi Calm Calm - N/A   Clear
5:35 PM 42.8 °F - 32.0 °F 66% 30.11 in 10.0 mi Calm Calm - N/A   Clear
5:55 PM 41.0 °F - 32.0 °F 70% 30.11 in 10.0 mi Calm Calm - N/A   Clear
6:15 PM 39.2 °F - 32.0 °F 75% 30.12 in 10.0 mi Calm Calm - N/A   Clear
6:35 PM 41.0 °F - 30.2 °F 65% 30.12 in 10.0 mi Calm Calm - N/A   Clear
6:55 PM 37.4 °F - 30.2 °F 75% 30.12 in 10.0 mi Calm Calm - N/A   Clear
7:15 PM 35.6 °F - 30.2 °F 81% 30.12 in 10.0 mi Calm Calm - N/A   Clear
7:35 PM 35.6 °F 30.7 °F 30.2 °F 81% 30.12 in 10.0 mi ENE 5.8 mph - N/A   Clear
7:55 PM 37.4 °F 32.8 °F 30.2 °F 75% 30.12 in 10.0 mi ENE 5.8 mph - N/A   Clear
8:15 PM 35.6 °F - 30.2 °F 81% 30.12 in 10.0 mi Calm Calm - N/A   Clear
8:35 PM 37.4 °F - 30.2 °F 75% 30.12 in 10.0 mi Calm Calm - N/A   Clear
8:55 PM 35.6 °F - 30.2 °F 81% 30.12 in 10.0 mi Calm Calm - N/A   Clear
9:15 PM 33.8 °F - 30.2 °F 87% 30.11 in 10.0 mi Calm Calm - N/A   Clear
9:35 PM 35.6 °F - 30.2 °F 81% 30.11 in 10.0 mi Calm Calm - N/A   Clear
9:55 PM 33.8 °F - 30.2 °F 87% 30.11 in 10.0 mi Calm Calm - N/A   Clear
10:15 PM 32.0 °F - 30.2 °F 93% 30.11 in 10.0 mi Calm Calm - N/A   Clear
10:35 PM 32.0 °F - 30.2 °F 93% 30.10 in 10.0 mi Calm Calm - N/A   Clear
10:55 PM 33.8 °F - 30.2 °F 87% 30.10 in 10.0 mi Calm Calm - N/A   Clear
11:15 PM 33.8 °F - 30.2 °F 87% 30.09 in 10.0 mi Calm Calm - N/A   Clear
11:35 PM 32.0 °F - 28.4 °F 87% 30.09 in 10.0 mi Calm Calm - N/A   Clear
11:55 PM 32.0 °F - 30.2 °F 93% 30.09 in 10.0 mi Calm Calm - N/A   Clear